N5CSU Weather Reports


time (UTC)temp
C
wind
direction
speed
KPH
gust
KPH
rain 1hr
cm
rain 24hr
cm
rain mn
cm
humidity
%
barometer
mb
20260904203847 36 184 0.0 0.0 0.00 0.00 0.00 45 1012.2
20260904203343 36 156 0.0 0.0 0.00 0.00 0.00 45 1012.2
20260904202838 36 196 0.0 0.0 0.00 0.00 0.00 46 1012.5
20260904202335 36 204 0.0 0.0 0.00 0.00 0.00 46 1012.3
20260904201830 36 177 1.6 1.6 0.00 0.00 0.00 47 1012.6
20260904201325 36 211 1.6 1.6 0.00 0.00 0.00 46 1012.7
20260904200820 36 189 0.0 0.0 0.00 0.00 0.00 47 1012.6
20260904200318 35 181 1.6 1.6 0.00 0.00 0.00 48 1012.6
20260904195814 35 213 0.0 0.0 0.00 0.00 0.00 48 1013.0
20260904195312 36 195 0.0 1.6 0.00 0.00 0.00 48 1012.9
20260904194807 36 207 0.0 1.6 0.00 0.00 0.00 46 1013.1
20260904194306 36 206 0.0 0.0 0.00 0.00 0.00 45 1013.1
20260904193801 35 184 0.0 1.6 0.00 0.00 0.00 47 1013.2
20260904193257 36 206 1.6 1.6 0.00 0.00 0.00 47 1013.3
20260904192752 36 200 0.0 1.6 0.00 0.00 0.00 46 1013.3
20260904192247 36 194 3.2 3.2 0.00 0.00 0.00 45 1013.3
20260904191744 36 181 0.0 1.6 0.00 0.00 0.00 46 1013.4
20260904191240 36 195 1.6 1.6 0.00 0.00 0.00 46 1013.5
20260904190736 36 194 1.6 1.6 0.00 0.00 0.00 47 1013.4
20260904190232 36 201 0.0 0.0 0.00 0.00 0.00 47 1013.5
20260904185728 36 231 1.6 1.6 0.00 0.00 0.00 46 1013.6
20260904185222 36 199 0.0 0.0 0.00 0.00 0.00 48 1013.6
20260904184721 35 215 0.0 1.6 0.00 0.00 0.00 46 1013.8
20260904184217 36 208 1.6 1.6 0.00 0.00 0.00 47 1013.8
20260904183713 35 193 0.0 0.0 0.00 0.00 0.00 48 1013.7
20260904183213 35 237 1.6 3.2 0.00 0.00 0.00 47 1013.9
20260904182708 36 206 0.0 1.6 0.00 0.00 0.00 47 1013.9
20260904182203 35 227 0.0 0.0 0.00 0.00 0.00 47 1013.9
20260904181659 35 205 0.0 0.0 0.00 0.00 0.00 48 1014.3
20260904181158 35 182 1.6 1.6 0.00 0.00 0.00 49 1014.2
20260904180654 35 189 1.6 3.2 0.00 0.00 0.00 49 1014.2
20260904180149 35 216 0.0 0.0 0.00 0.00 0.00 47 1014.4
20260904175648 35 186 0.0 1.6 0.00 0.00 0.00 49 1014.6
20260904175147 35 183 1.6 1.6 0.00 0.00 0.00 48 1014.6
20260904174641 35 205 0.0 0.0 0.00 0.00 0.00 49 1014.6
20260904174137 35 197 1.6 1.6 0.00 0.00 0.00 50 1014.6
20260904173633 34 198 0.0 0.0 0.00 0.00 0.00 51 1014.5
20260904173123 34 193 0.0 0.0 0.00 0.00 0.00 52 1014.9
20260904172619 34 188 0.0 0.0 0.00 0.00 0.00 52 1014.8
20260904172118 34 222 0.0 0.0 0.00 0.00 0.00 52 1015.0
20260904171613 34 248 0.0 0.0 0.00 0.00 0.00 53 1014.9
20260904171108 34 183 1.6 3.2 0.00 0.00 0.00 52 1015.1
20260904170604 34 204 1.6 3.2 0.00 0.00 0.00 55 1015.1
20260904170054 34 20 0.0 1.6 0.00 0.00 0.00 56 1015.0
20260904165552 33 194 0.0 1.6 0.00 0.00 0.00 56 1015.0
20260904165047 33 210 0.0 0.0 0.00 0.00 0.00 55 1015.1
20260904164542 34 195 0.0 0.0 0.00 0.00 0.00 57 1014.9
20260904164038 34 192 1.6 3.2 0.00 0.00 0.00 58 1015.3
20260904163537 33 206 0.0 0.0 0.00 0.00 0.00 58 1015.3
20260904163033 33 209 0.0 0.0 0.00 0.00 0.00 60 1015.4
20260904162527 33 162 0.0 1.6 0.00 0.00 0.00 60 1015.2
20260904162022 33 185 0.0 0.0 0.00 0.00 0.00 60 1015.0
20260904161517 33 200 0.0 0.0 0.00 0.00 0.00 60 1015.0
20260904161012 32 192 0.0 0.0 0.00 0.00 0.00 62 1015.0
20260904160507 32 38 0.0 1.6 0.00 0.00 0.00 63 1015.1
20260904160003 32 223 1.6 1.6 0.00 0.00 0.00 63 1015.3
20260904155502 32 204 0.0 0.0 0.00 0.00 0.00 66 1015.3
20260904155001 31 207 0.0 0.0 0.00 0.00 0.00 69 1015.3
20260904154455 31 197 1.6 1.6 0.00 0.00 0.00 69 1015.3
20260904153950 31 204 0.0 0.0 0.00 0.00 0.00 71 1015.0
20260904153445 30 202 0.0 0.0 0.00 0.00 0.00 72 1015.2
20260904152942 30 246 0.0 1.6 0.00 0.00 0.00 72 1015.2
20260904152437 30 205 0.0 0.0 0.00 0.00 0.00 73 1015.2
20260904151937 30 212 0.0 0.0 0.00 0.00 0.00 74 1015.1
20260904151432 30 182 0.0 0.0 0.00 0.00 0.00 76 1015.0
20260904150927 30 193 0.0 1.6 0.00 0.00 0.00 76 1014.9
20260904150422 29 233 1.6 1.6 0.00 0.00 0.00 77 1015.2
20260904145920 29 190 0.0 0.0 0.00 0.00 0.00 78 1015.0
20260904145416 29 208 0.0 0.0 0.00 0.00 0.00 79 1015.1
20260904144911 28 160 0.0 0.0 0.00 0.00 0.00 80 1015.0
20260904144401 28 184 1.6 3.2 0.00 0.00 0.00 80 1015.2
20260904143856 28 188 0.0 0.0 0.00 0.00 0.00 82 1015.1
20260904143354 28 217 0.0 0.0 0.00 0.00 0.00 82 1015.3
20260904142850 28 210 0.0 0.0 0.00 0.00 0.00 82 1015.3
20260904142345 28 204 0.0 0.0 0.00 0.00 0.00 83 1015.2
20260904141844 28 212 0.0 0.0 0.00 0.00 0.00 84 1015.1
20260904141340 27 211 0.0 0.0 0.00 0.00 0.00 85 1015.2
20260904140836 27 190 0.0 0.0 0.00 0.00 0.00 86 1015.3
20260904140331 27 213 0.0 0.0 0.00 0.00 0.00 86 1015.1
20260904135830 27 219 0.0 0.0 0.00 0.00 0.00 86 1015.1
20260904135325 27 184 0.0 1.6 0.00 0.00 0.00 87 1015.1
20260904134816 27 189 0.0 0.0 0.00 0.00 0.00 88 1015.1
20260904134315 26 183 0.0 0.0 0.00 0.00 0.00 88 1014.9
20260904133810 26 183 0.0 0.0 0.00 0.00 0.00 89 1014.9
20260904133306 26 204 0.0 0.0 0.00 0.00 0.00 89 1014.8
20260904132805 26 189 0.0 0.0 0.00 0.00 0.00 89 1014.8
20260904132301 26 138 0.0 0.0 0.00 0.00 0.00 90 1014.8
20260904131800 26 200 0.0 0.0 0.00 0.00 0.00 90 1014.5
20260904131256 25 183 0.0 0.0 0.00 0.00 0.00 91 1014.8
20260904130755 25 204 0.0 0.0 0.00 0.00 0.00 91 1014.7
20260904130255 25 184 0.0 0.0 0.00 0.00 0.00 91 1014.7
20260904125751 25 137 0.0 0.0 0.00 0.00 0.00 91 1014.7
20260904125247 25 193 0.0 0.0 0.00 0.00 0.00 91 1014.5
20260904124741 25 199 0.0 0.0 0.00 0.00 0.00 91 1014.5
20260904124238 25 199 0.0 0.0 0.00 0.00 0.00 91 1014.6
20260904123737 25 199 0.0 0.0 0.00 0.00 0.00 91 1014.6
20260904123232 25 192 0.0 0.0 0.00 0.00 0.00 91 1014.5
20260904122728 25 202 0.0 0.0 0.00 0.00 0.00 91 1014.4
20260904122222 25 187 0.0 0.0 0.00 0.00 0.00 91 1014.5
20260904121718 25 186 0.0 0.0 0.00 0.00 0.00 91 1014.2
20260904121214 25 202 0.0 0.0 0.00 0.00 0.00 91 1014.4
20260904120710 25 202 0.0 0.0 0.00 0.00 0.00 92 1014.3
20260904120206 25 202 0.0 0.0 0.00 0.00 0.00 91 1014.4
20260904115701 25 202 0.0 0.0 0.00 0.00 0.00 91 1014.1
20260904115201 25 202 0.0 0.0 0.00 0.00 0.00 91 1014.4
20260904114655 25 202 0.0 0.0 0.00 0.00 0.00 91 1014.2
20260904114149 25 209 0.0 0.0 0.00 0.00 0.00 90 1014.2
20260904113644 25 209 0.0 0.0 0.00 0.00 0.00 90 1014.1
20260904113143 25 209 0.0 0.0 0.00 0.00 0.00 90 1014.2
20260904112639 25 209 0.0 0.0 0.00 0.00 0.00 90 1013.9
20260904112135 25 212 0.0 0.0 0.00 0.00 0.00 90 1014.0
20260904111630 25 206 0.0 0.0 0.00 0.00 0.00 90 1013.8
20260904111126 25 199 0.0 0.0 0.00 0.00 0.00 89 1014.0
20260904110620 25 198 0.0 0.0 0.00 0.00 0.00 89 1014.0
20260904110120 25 201 0.0 0.0 0.00 0.00 0.00 89 1013.9
20260904105614 25 201 0.0 0.0 0.00 0.00 0.00 88 1013.9
20260904105109 25 201 0.0 0.0 0.00 0.00 0.00 88 1013.9
20260904104605 25 201 0.0 0.0 0.00 0.00 0.00 88 1014.1
20260904104100 25 201 0.0 0.0 0.00 0.00 0.00 88 1014.0
20260904103555 25 204 0.0 0.0 0.00 0.00 0.00 87 1013.7
20260904103052 25 204 0.0 0.0 0.00 0.00 0.00 88 1013.7
20260904102548 25 204 0.0 0.0 0.00 0.00 0.00 88 1013.8
20260904102042 25 204 0.0 0.0 0.00 0.00 0.00 88 1013.8
20260904101539 25 201 0.0 0.0 0.00 0.00 0.00 88 1013.7
20260904101034 25 194 0.0 0.0 0.00 0.00 0.00 87 1013.7
20260904100530 25 198 0.0 0.0 0.00 0.00 0.00 87 1013.7
20260904100025 25 203 0.0 0.0 0.00 0.00 0.00 87 1013.6
20260904095520 25 203 0.0 0.0 0.00 0.00 0.00 87 1013.5
20260904095015 25 206 0.0 0.0 0.00 0.00 0.00 87 1013.6
20260904094509 25 208 0.0 0.0 0.00 0.00 0.00 87 1013.4
20260904094005 25 207 0.0 0.0 0.00 0.00 0.00 86 1013.6
20260904093502 25 209 0.0 0.0 0.00 0.00 0.00 86 1013.4
20260904092956 25 209 0.0 0.0 0.00 0.00 0.00 86 1013.4
20260904092453 25 212 0.0 0.0 0.00 0.00 0.00 86 1013.8
20260904091948 25 208 0.0 0.0 0.00 0.00 0.00 86 1013.6
20260904091444 25 189 0.0 0.0 0.00 0.00 0.00 85 1013.6
20260904090938 25 209 0.0 0.0 0.00 0.00 0.00 85 1013.8
20260904090434 25 208 0.0 0.0 0.00 0.00 0.00 85 1013.7
20260904085929 25 187 0.0 0.0 0.00 0.00 0.00 85 1013.7
20260904085424 25 199 0.0 0.0 0.00 0.00 0.00 85 1013.6
20260904084919 25 201 0.0 0.0 0.00 0.00 0.00 85 1013.5
20260904084416 25 200 0.0 0.0 0.00 0.00 0.00 85 1013.5
20260904083910 25 201 0.0 0.0 0.00 0.00 0.00 85 1013.7
20260904083407 25 200 0.0 0.0 0.00 0.00 0.00 84 1013.6
20260904082857 25 196 0.0 0.0 0.00 0.00 0.00 84 1013.6
20260904082357 25 198 0.0 0.0 0.00 0.00 0.00 84 1013.6
20260904081852 25 194 0.0 0.0 0.00 0.00 0.00 84 1013.4
20260904081347 25 191 0.0 0.0 0.00 0.00 0.00 84 1013.4
20260904080843 25 189 0.0 0.0 0.00 0.00 0.00 84 1013.4
20260904080339 25 198 0.0 0.0 0.00 0.00 0.00 84 1013.4
20260904075835 25 198 0.0 0.0 0.00 0.00 0.00 83 1013.7
20260904075330 25 189 0.0 0.0 0.00 0.00 0.00 84 1013.4
20260904074829 25 202 0.0 0.0 0.00 0.00 0.00 83 1013.4
20260904074324 25 202 0.0 0.0 0.00 0.00 0.00 83 1013.3
20260904073819 25 194 0.0 0.0 0.00 0.00 0.00 83 1013.2
20260904073315 25 204 0.0 0.0 0.00 0.00 0.00 83 1013.4
20260904072811 26 200 0.0 0.0 0.00 0.00 0.00 83 1013.5
20260904072310 26 200 0.0 0.0 0.00 0.00 0.00 83 1013.5
20260904071805 26 202 0.0 0.0 0.00 0.00 0.00 83 1013.4
20260904071300 26 203 0.0 0.0 0.00 0.00 0.00 82 1013.3
20260904070755 26 204 0.0 0.0 0.00 0.00 0.00 82 1013.4
20260904070254 26 204 0.0 0.0 0.00 0.00 0.00 82 1013.3
20260904065749 26 209 0.0 0.0 0.00 0.00 0.00 82 1013.7
20260904065246 26 207 0.0 0.0 0.00 0.00 0.00 81 1013.8
20260904064745 26 189 0.0 0.0 0.00 0.00 0.00 81 1013.8
20260904064241 26 203 0.0 0.0 0.00 0.00 0.00 81 1013.8
20260904063737 26 202 0.0 0.0 0.00 0.00 0.00 80 1013.6
20260904063233 26 195 0.0 0.0 0.00 0.00 0.00 80 1013.9
20260904062728 26 202 0.0 0.0 0.00 0.00 0.00 80 1013.6
20260904062224 26 224 0.0 0.0 0.00 0.00 0.00 79 1013.6
20260904061720 26 201 0.0 0.0 0.00 0.00 0.00 79 1013.7
20260904061216 26 205 0.0 0.0 0.00 0.00 0.00 79 1013.6
20260904060713 26 197 0.0 0.0 0.00 0.00 0.00 78 1013.6
20260904060208 26 210 0.0 0.0 0.00 0.00 0.00 78 1013.5
20260904055703 26 235 0.0 0.0 0.00 0.00 0.00 78 1013.8
20260904055158 26 214 0.0 0.0 0.00 0.00 0.00 78 1013.7
20260904054654 26 195 0.0 0.0 0.00 0.00 0.00 77 1013.7
20260904054150 26 202 0.0 0.0 0.00 0.00 0.00 77 1013.8
20260904053650 27 203 0.0 0.0 0.00 0.00 0.00 77 1013.6
20260904053144 27 129 0.0 0.0 0.00 0.00 0.00 77 1013.6
20260904052641 27 358 0.0 0.0 0.00 0.00 0.00 77 1013.6
20260904052136 27 201 0.0 0.0 0.00 0.00 0.00 76 1013.6
20260904051633 27 191 0.0 0.0 0.00 0.00 0.00 76 1013.7
20260904051132 27 207 0.0 0.0 0.00 0.00 0.00 76 1013.6
20260904050628 27 195 0.0 0.0 0.00 0.00 0.00 75 1013.7
20260904050125 27 217 0.0 0.0 0.00 0.00 0.00 75 1013.6
20260904045624 27 199 0.0 0.0 0.00 0.00 0.00 75 1013.5
20260904045119 27 209 0.0 0.0 0.00 0.00 0.00 75 1013.7
20260904044614 27 184 0.0 0.0 0.00 0.00 0.00 75 1013.8
20260904044111 27 192 0.0 0.0 0.00 0.00 0.00 75 1013.5
20260904043607 27 193 0.0 0.0 0.00 0.00 0.00 76 1013.8
20260904043103 27 203 0.0 0.0 0.00 0.00 0.00 75 1013.7
20260904042559 27 179 1.6 1.6 0.00 0.00 0.00 75 1013.6
20260904042054 27 226 0.0 0.0 0.00 0.00 0.00 75 1013.9
20260904041550 27 203 0.0 0.0 0.00 0.00 0.00 74 1013.8
20260904041046 27 214 0.0 0.0 0.00 0.00 0.00 74 1013.7
20260904040546 27 180 0.0 1.6 0.00 0.00 0.00 74 1013.8
20260904040042 27 200 0.0 0.0 0.00 0.00 0.00 73 1013.7
20260904035537 27 198 0.0 0.0 0.00 0.00 0.00 73 1013.7
20260904035036 27 185 0.0 0.0 0.00 0.00 0.00 72 1013.6
20260904034531 27 196 0.0 0.0 0.00 0.00 0.00 72 1013.7
20260904034027 27 199 0.0 1.6 0.00 0.00 0.00 71 1013.9
20260904033523 27 190 0.0 0.0 0.00 0.00 0.00 70 1014.0
20260904033020 27 197 0.0 0.0 0.00 0.00 0.00 70 1013.8
20260904032514 27 84 1.6 3.2 0.00 0.00 0.00 69 1013.7
20260904032014 27 204 0.0 0.0 0.00 0.00 0.00 69 1013.9
20260904031509 27 203 0.0 0.0 0.00 0.00 0.00 69 1013.7
20260904031005 27 211 0.0 0.0 0.00 0.00 0.00 69 1013.5
20260904030500 27 200 0.0 0.0 0.00 0.00 0.00 69 1013.7
20260904025955 27 193 0.0 0.0 0.00 0.00 0.00 69 1013.6
20260904025451 27 198 0.0 0.0 0.00 0.00 0.00 69 1013.7
20260904024951 27 219 0.0 0.0 0.00 0.00 0.00 68 1013.5
20260904024446 27 222 0.0 1.6 0.00 0.00 0.00 68 1013.6
20260904023942 27 210 0.0 0.0 0.00 0.00 0.00 68 1013.3
20260904023438 27 202 0.0 0.0 0.00 0.00 0.00 69 1013.1
20260904022938 28 187 0.0 1.6 0.00 0.00 0.00 68 1013.2
20260904022434 28 198 0.0 0.0 0.00 0.00 0.00 68 1013.0
20260904021931 28 172 0.0 1.6 0.00 0.00 0.00 68 1012.9
20260904021426 28 185 0.0 0.0 0.00 0.00 0.00 68 1012.8
20260904020921 28 198 0.0 0.0 0.00 0.00 0.00 68 1012.7
20260904020417 28 181 0.0 0.0 0.00 0.00 0.00 68 1012.8
20260904015915 28 187 0.0 0.0 0.00 0.00 0.00 68 1012.7
20260904015411 28 192 0.0 0.0 0.00 0.00 0.00 69 1012.6
20260904014909 28 210 0.0 0.0 0.00 0.00 0.00 70 1012.6
20260904014405 28 210 0.0 0.0 0.00 0.00 0.00 71 1012.4
20260904013900 28 203 0.0 0.0 0.00 0.00 0.00 73 1012.4
20260904013356 28 195 0.0 0.0 0.00 0.00 0.00 73 1012.4
20260904012851 28 195 0.0 0.0 0.00 0.00 0.00 72 1012.5
20260904012346 28 198 0.0 0.0 0.00 0.00 0.00 72 1012.4
20260904011845 28 202 0.0 0.0 0.00 0.00 0.00 72 1012.4
20260904011341 29 216 1.6 1.6 0.00 0.00 0.00 71 1012.2
20260904010836 29 203 0.0 1.6 0.00 0.00 0.00 72 1012.1
20260904010332 29 191 0.0 1.6 0.00 0.00 0.00 71 1012.1
20260904005827 29 195 1.6 1.6 0.00 0.00 0.00 70 1012.1
20260904005323 29 185 0.0 0.0 0.00 0.00 0.00 69 1012.0
20260904004817 30 154 1.6 1.6 0.00 0.00 0.00 68 1012.1
20260904004314 30 199 0.0 0.0 0.00 0.00 0.00 67 1012.0
20260904003814 30 99 0.0 0.0 0.00 0.00 0.00 66 1012.1
20260904003310 30 213 0.0 0.0 0.00 0.00 0.00 65 1012.1
20260904002805 30 187 0.0 0.0 0.00 0.00 0.00 64 1012.0
20260904002301 30 240 0.0 0.0 0.00 0.00 0.00 64 1011.9
20260904001800 30 188 1.6 3.2 0.00 0.00 0.00 65 1012.0
20260904001255 30 198 0.0 0.0 0.00 0.00 0.00 65 1011.9
20260904000751 30 203 0.0 0.0 0.00 0.00 0.00 64 1011.9
20260904000248 30 200 0.0 0.0 0.00 0.00 0.00 66 1011.7
20260903235745 30 199 0.0 0.0 0.00 0.00 0.00 66 1011.8
20260903235242 30 196 0.0 0.0 0.00 0.00 0.00 66 1011.7
20260903234741 31 195 0.0 0.0 0.00 0.00 0.00 65 1011.9
20260903234237 31 168 1.6 3.2 0.00 0.00 0.00 65 1011.8
20260903233733 31 163 1.6 3.2 0.00 0.00 0.00 64 1011.9
20260903233229 31 113 1.6 1.6 0.00 0.00 0.00 64 1011.6
20260903232727 31 176 0.0 1.6 0.00 0.00 0.00 64 1011.7
20260903232224 31 212 0.0 0.0 0.00 0.00 0.00 65 1011.5
20260903231723 31 175 0.0 0.0 0.00 0.00 0.00 66 1011.6
20260903231218 31 189 0.0 0.0 0.00 0.00 0.00 65 1011.5
20260903230713 31 228 0.0 1.6 0.00 0.00 0.00 65 1011.5
20260903230208 32 181 3.2 3.2 0.00 0.00 0.00 63 1011.7
20260903225705 32 173 0.0 0.0 0.00 0.00 0.00 63 1011.6
20260903225201 32 192 1.6 1.6 0.00 0.00 0.00 60 1011.4
20260903224657 32 204 0.0 1.6 0.00 0.00 0.00 59 1011.3
20260903224152 32 180 3.2 3.2 0.00 0.00 0.00 59 1011.5
20260903223648 32 203 0.0 0.0 0.00 0.00 0.00 59 1011.3
20260903223146 32 191 0.0 0.0 0.00 0.00 0.00 60 1011.3
20260903222646 32 212 0.0 1.6 0.00 0.00 0.00 60 1011.3
20260903222144 32 196 1.6 3.2 0.00 0.00 0.00 59 1011.4
20260903221640 32 65 0.0 0.0 0.00 0.00 0.00 59 1011.2
20260903221138 32 184 0.0 0.0 0.00 0.00 0.00 60 1011.3
20260903220637 32 201 1.6 3.2 0.00 0.00 0.00 60 1011.3
20260903220132 32 198 0.0 0.0 0.00 0.00 0.00 59 1011.5
20260903215631 32 207 0.0 0.0 0.00 0.00 0.00 61 1011.6
20260903215126 32 208 3.2 3.2 0.00 0.00 0.00 63 1011.5
20260903214625 32 177 0.0 0.0 0.00 0.00 0.00 62 1011.7
20260903214121 32 205 0.0 0.0 0.00 0.00 0.00 63 1011.7
20260903213616 32 47 1.6 1.6 0.00 0.00 0.00 62 1011.8
20260903213111 32 189 0.0 1.6 0.00 0.00 0.00 63 1012.0
20260903212607 32 256 0.0 0.0 0.00 0.00 0.00 63 1012.1
20260903212102 32 187 0.0 1.6 0.00 0.00 0.00 64 1011.9
20260903211556 32 205 0.0 0.0 0.00 0.00 0.00 64 1012.1
20260903211053 31 199 0.0 0.0 0.00 0.00 0.00 64 1012.0
20260903210548 32 204 0.0 0.0 0.00 0.00 0.00 64 1012.2
20260903210045 32 56 4.8 6.4 0.00 0.00 0.00 63 1011.9
20260903205543 32 203 0.0 0.0 0.00 0.00 0.00 64 1012.1
20260903205038 32 169 0.0 1.6 0.00 0.00 0.00 63 1012.1
20260903204534 32 22 1.6 1.6 0.00 0.00 0.00 64 1012.1